Regional Weather Roundup
Issued by NWS San Angelo, TX

Home | Current Version | Previous Version | Text Only | Print | Product List | Glossary On
Versions: 1 2 3 4 5 6 7 8 9 10 11 12 13 14 15 16 17 18 19 20 21 22 23 24 25 26 27 28 29 30 31 32 33 34 35 36 37 38 39 40 41 42 43 44 45 46 47 48 49 50
000
ASUS44 KSJT 251410
RWRSJT
WEST CENTRAL TEXAS REGIONAL WEATHER ROUNDUP
NATIONAL WEATHER SERVICE SAN ANGELO TX
900 AM CDT FRI JUL 25 2014

NOTE: "FAIR" INDICATES FEW OR NO CLOUDS BELOW 12,000 FEET WITH NO
SIGNIFICANT WEATHER AND/OR OBSTRUCTIONS TO VISIBILITY.

TXZ049-054-064>066-071>073-076>078-098-099-113-114-127-128-139-140-
154-155-168>170-251500
...LOCATIONS ACROSS WEST CENTRAL TEXAS...

CITY           SKY/WX    TMP DP  RH WIND       PRES   REMARKS
SAN ANGELO     SUNNY     79  67  66 S7        30.08R
ABILENE        SUNNY     80  66  62 SW9       30.07R
DYESS AFB      SUNNY     81  66  59 S8        30.05S
JUNCTION       SUNNY     75  68  78 CALM      30.08S
SWEETWATER     SUNNY     81  63  55 SW10      30.12S
BROWNWOOD      SUNNY     77  68  73 S6        30.07R
COLEMAN        SUNNY     78  66  65 SW7       30.08R
SONORA         SUNNY     77  68  73 S7        30.13S
OZONA          FAIR      77  64  65 S7        30.12S
BRADY          SUNNY     79  70  73 S8        30.08S
$$

TEXAS PANHANDLE/OKLAHOMA PANHANDLE

CITY           SKY/WX    TMP DP  RH WIND       PRES   REMARKS
AMARILLO       SUNNY     78  61  55 SW18G25   30.08S
BORGER         SUNNY     83  60  45 SW9       30.04R
CANADIAN       SUNNY     83  64  52 SW14      30.00R
DALHART        SUNNY     78  57  48 SW18      30.07S
DUMAS          SUNNY     78  59  52 SW24G32   30.05S
GUYMON         NOT AVBL
HEREFORD       SUNNY     77  64  62 SW13      30.12S
PAMPA          SUNNY     80  59  49 SW22      30.05S
PERRYTON       SUNNY     83  60  46 SW20G26   29.99F
$$

SOUTHERN PANHANDLE/SOUTH PLAINS/ROLLING PLAINS

CITY           SKY/WX    TMP DP  RH WIND       PRES   REMARKS
LUBBOCK        MOSUNNY   80  61  52 SW15      30.11R
SNYDER         SUNNY     77  63  61 SW9       30.09S
CHILDRESS      SUNNY     80  65  59 SW9       30.03R
SEMINOLE       MOSUNNY   78  61  57 S9        30.14R
$$

PERMIAN BASIN

CITY           SKY/WX    TMP DP  RH WIND       PRES   REMARKS
MIDLAND        MOSUNNY   79  64  60 S10       30.11R
ODESSA         MOSUNNY   78  63  59 S12       30.12R
WINK           MOSUNNY   76  63  64 SE9       30.08S
$$

FAR WEST/SOUTHWEST MOUNTAINS/TRANS PECOS

CITY           SKY/WX    TMP DP  RH WIND       PRES   REMARKS
ALPINE         SUNNY     74  57  54 SW5       30.25S
DRYDEN           N/A     82  66  58 E8        30.07R
EL PASO        MOSUNNY   79  53  40 S5        30.14R
FORT STOCKTON  SUNNY     78  62  57 S10       30.11R
GUADALUPE PASS SUNNY     75  54  47 SW8       30.27S
MARFA          SUNNY     70  57  64 CALM      30.25R
PECOS          MOSUNNY   76  60  57 E6        30.07S
$$

DALLAS/FORT WORTH METROPLEX

CITY           SKY/WX    TMP DP  RH WIND       PRES   REMARKS
DFW AIRPORT    MOSUNNY   82  70  66 S8        30.01S
FTW MEACHAM    SUNNY     83  68  60 S7        30.01R
DAL-EXECUTIVE  SUNNY     81  71  71 VRB6      30.02R
GRAND PRAIRIE  SUNNY     81  68  65 S9        30.03S
ADDISON        NOT AVBL
MESQUITE       SUNNY     79  73  83 SE5       30.04R
LANCASTER      SUNNY     78  70  74 SE5       30.04R
$$

NORTH CENTRAL TEXAS

CITY           SKY/WX    TMP DP  RH WIND       PRES   REMARKS
SHRMAN/DENISON SUNNY     80  71  73 S8        30.03S
GAINESVILLE    SUNNY     78  71  81 S9        30.04R
BRIDGEPORT     SUNNY     80  69  69 S5        30.04S
DENTON         SUNNY     80  70  71 S9        30.02R
WAXAHACHIE     SUNNY     79  69  70 S3        30.04R
GRANBURY       SUNNY     83  69  62 SE3       30.04R
$$

WESTERN NORTH TEXAS

CITY           SKY/WX    TMP DP  RH WIND       PRES   REMARKS
WICHITA FALLS  SUNNY     80  68  66 SW10      30.00R
VERNON         SUNNY     81  67  61 SW9       30.02R
BRECKENRIDGE   SUNNY     83  65  54 SW7       30.04R
COMANCHE       SUNNY     81  68  65 SW9       30.06R
$$

CENTRAL AND SOUTH CENTRAL TEXAS

CITY           SKY/WX    TMP DP  RH WIND       PRES   REMARKS
AUSTIN/BERGSTM MOSUNNY   81  73  76 SW7       30.05R
WACO           SUNNY     82  71  69 SW7       30.04R
HILLSBORO      SUNNY     81  70  68 S7        30.03S
TEMPLE         SUNNY     79  70  73 S9        30.05R
KILLEEN-GRAY   MOSUNNY   81  70  69 SW8       30.05R
FORT HOOD      MOSUNNY   84  70  62 SW6       30.05R
GEORGETOWN     SUNNY     79  72  78 SW9       30.06R
LAGO VISTA     FAIR      79  70  73 SW8       30.08R
SAN MARCOS     PTSUNNY   81  72  74 S7        30.07R
NEW BRAUNFELS  PTSUNNY   82  74  76 S8        30.05R
RANDOLPH AFB   CLOUDY    79  73  83 SW6       30.07R
SAN ANTONIO    CLOUDY    79  74  84 SW6       30.06R
STINSON        MOSUNNY   80  75  84 S6        30.04R
PLEASANTON     NOT AVBL
LA GRANGE      SUNNY     81  77  87 S5        30.04R
GIDDINGS       SUNNY     79  74  83 CALM      30.09R
$$

EAST TEXAS

CITY           SKY/WX    TMP DP  RH WIND       PRES   REMARKS
PARIS          MOSUNNY   75  70  83 S8        30.05S
CLARKSVILLE    CLOUDY    75  74  99 SE6       30.05R
TYLER          SUNNY     80  73  79 S7        30.04S
LONGVIEW       MOSUNNY   78  74  87 SE6       30.04R
PALESTINE      NOT AVBL
NACOGDOCHES    SUNNY     77  73  88 SE5       30.06R
$$

TEXAS HILL COUNTRY AND EDWARDS PLATEAU

CITY           SKY/WX    TMP DP  RH WIND       PRES   REMARKS
LLANO          SUNNY     81  70  69 CALM      30.09F
HORSESHOE BAY  FAIR      80  67  65 CALM      30.07R
KERRVILLE      CLOUDY    74  72  92 S5        30.10R FOG
FREDERICKSBRG  SUNNY     76  69  79 CALM      30.09S
ROCKSPRINGS    MOSUNNY   75  72  88 SE7       30.13R FOG
HONDO          CLOUDY    77  73  87 SE5       30.08R
UVALDE         MOSUNNY   78  75  90 E6        30.06R
DEL RIO        SUNNY     81  71  71 SE8       30.02R
$$

SOUTHEAST TEXAS

CITY           SKY/WX    TMP DP  RH WIND       PRES   REMARKS
COLLEGE STN    MOSUNNY   79  75  87 S7        30.06R
CALDWELL       SUNNY     77  77 100 S6        30.09R
CROCKETT       SUNNY     82  79  89 S5        30.08R
BRENHAM        SUNNY     82  74  78 SW7       30.06R
HUNTSVILLE     MOSUNNY   80  75  84 SW8       30.07R
CONROE         PTSUNNY   80  76  87 W5        30.07R
HOUSTON BUSH   MOSUNNY   82  76  81 W8        30.05R
HOUSTON HOBBY  PTSUNNY   80  75  84 SW3       30.05R
PERLAND        PTSUNNY   79  74  84 W3        30.06R
WHARTON        SUNNY     77  76  97 CALM      30.06R FOG
$$

THE UPPER TEXAS COAST

CITY           SKY/WX    TMP DP  RH WIND       PRES   REMARKS
ORANGE         CLOUDY    79  79 100 CALM      30.06R
PORT ARTHUR    MOSUNNY   80  73  79 SW10      30.05R
GALVESTON      CLOUDY    81  76  84 NW6       30.06R
ANGLETON       PTSUNNY   77  76  96 CALM      30.05R
BAY CITY       MOSUNNY   78  78 100 CALM      30.05R FOG
$$

TEXAS COASTAL BEND, RIO GRANDE PLAINS DEEP SOUTH TEXAS

CITY           SKY/WX    TMP DP  RH WIND       PRES   REMARKS
VICTORIA       SUNNY     85  77  77 VRB5      30.04R
BEEVILLE       FAIR      83  77  80 S9        30.03S
ROCKPORT       MOSUNNY   85  76  74 S6        30.02R
PORT ARANSAS   SUNNY     84  77  81 S6        30.03R
PORT LAVACA    SUNNY     83  77  82 S6        30.03R
CORPUS CHRISTI MOSUNNY   84  76  76 S9        30.02R
KINGSVILLE NAS MOSUNNY   85  78  80 SE9       30.01R
COTULLA        PTSUNNY   80  74  81 SE8       30.03R
LAREDO         SUNNY     83  74  74 SE10      30.03R
BROWNSVILLE    MOSUNNY   84  79  84 S12       30.01R
PORT ISABEL    MOSUNNY   86  76  71 S10       30.01R HAZE
HEBBRONVILLE   PTSUNNY   78  74  90 SE6       30.03R
MCALLEN        SUNNY     83  74  74 SE9       30.00S
WESLACO        SUNNY     83  74  73 S10       30.00S HAZE
FALFURRIAS     MOSUNNY   67  67 100 S10       30.00R
EDINBURG       MOSUNNY   85  75  73 S7        30.01R
$$


USA.gov is the U.S. government's official web portal to all federal, state and local government web resources and services.